ROMMA est une association bénévole à but non lucratif. Votre soutien est indispensable : ADHERER à ROMMA ou FAIRE un DON

Chamrousse - (38, Isère)

Massif de Belledonne (1800 m)   Longitude: 05° 52' 28" E   Latitude: 45° 06' 28" N Station partenaire n°3
 

Détail journalier du     <<     >>

Température Precipitation Humidité Pression Vent Dir Rafale Dir. rafale
Heure (°C) (mm) (%) (hPa) (km/h) (km/h)
01:00 4.8068101212NNE16NNE
02:00 5.1064101212NNE18NNE
03:00 4.3071101112NNE16NNE
04:00 4.4072101214NNE21NNE
05:00 4.4072101014NNE21NNE
06:00 4.2073101013NNE18NNE
07:00 4.9066101012NNE18NNE
08:00 7.006010101NNE10NNE
09:00 7.8058101003NE
10:00 7.905810101NE15SE
11:00 9.006110104SSE15S
12:00 8.505810105SSO18SSO
13:00 10.905610097SSO21SSO
14:00 11.104810097SSO24SSO
15:00 12.1050100810SSO26S
16:00 12.205210088S26SSO
17:00 12.405210088SSO29SSO
18:00 10.3065100811SSO27SSO
19:00 11.1064100810SSO27SSO
20:00 9.20.27910089SSO29S
21:00 8.706810089SSO23SSO
22:00 9.306110089SSE21ESE
23:00 8.20.271100810E24SE
minuit 8.4070100818E37NNE

Graphique du 23-05-2008

 

Serveur OMMA